Погода Мыс Лопатка

Погода Мыс Лопатка : погода сейчас, прогноз погоды и архив. Всё, что Вы хотите узнать о погоде Мыс Лопатка!

Поиск расширенной информации на нашем сайте:

Другие новости

Новости СМИ2

Главная страница сайта

Новости сайта

03.07.2017

Напоминаем, что на нашем специализированном сайте Метеоцентр.Азия вы можете получить высокодетализированные автоматические прогнозы погоды по пунктам России, СНГ и мира в авиационном формате (включающие направление и скорость ветра, видимость, явления погоды, количество и форму облачности, нижнюю и верхнюю границу облачности).


Погода Мыс Лопатка - сегодня

Время (UTC), дата Ветер
(°,м/с) 
Видим.   Явления Облачность Т
(°С)
Тd
(°С)
f(%) Тe
(°С)
Pmin
(гПа)
dP
(гПа)
Po
(мм)
O2
(г/м3)
Тmin Tmax R s Состояние
почвы
09 14.02.18 300 (СЗ) 12-14{16}  20000 м  {ливн. осадки}  3/3 600 м 
[Sc]
-6.4 -10.8 71 -13  999.2  1.3  745  308    -4.9  0.0     
15 14.02.18 260 (З) 7{14}  20000 м    6/6 600 м 
[Sc]
-6.7 -13.3 59 -12  1000.6  0.1  746  309           
18 14.02.18 240 (ЮЗ) 20000 м    1/1 600 м 
[Sc]
-7.4 -12.7 66 -9  1000  -0.6  745  310           
09 15.02.18 080 (В) 9-11{11}  20000 м  позёмок  3/1 600 м верхняя 
[Sc|Ci fib]
-6.7 -9.2 82 -13  995.3  -0.4  742  307    -4.7  0.0     
21 15.02.18 050 (СВ) 9-10{16}  20000 м    9/1 600 м верхняя 
[Sc|Cs]
-7.5 -11.9 71 -14  990.9  0.4  738  307  -7.9      25  неравномерный
мокрый или
старый снег
100% 
09 16.02.18 330 (СЗ) 13-16{20}  20000 м  позёмок  3/0 верхняя 
[Ci fib]
-6.8 -9.7 80 -14  992.6  1.3  740  307    -5.5       
21 16.02.18 290 (З) 10-13{14}  4000 м  слаб. ливневой снег  8/8 300 м кучево-дожд. 
[Cb cap]
-6.2 -7.9 88 -13  996.8  0.9  743  307  -6.9    0.2  32  неравномерный
мокрый или
старый снег
100% 
09 17.02.18 260 (З) 7-10{12}  20000 м    3/1 600 м верхняя 
[Sc|Ci fib]
-5.1 -8.4 78 -10  1000.1  745  307    -4.5  0.0     
21 17.02.18 300 (СЗ) 10-13{14}  20000 м    9/8 600 м средняя 
[Sc|Ac trans]
-4.9 -10.9 63 -11  1000.8  0.1  746  307  -5.8      32  неравномерный
мокрый или
старый снег
100% 
09 18.02.18 290 (З) 10-13{14}  20000 м  позёмок{ливн. осадки}  3/3 600 м 
[Sc diur, vesp]
-4.4 -5.3 93 -10  997.1  -1.1  743  305    -4.1  0.0     
21 18.02.18 310 (СЗ) 17-22{23}  20000 м  позёмок{ливн. осадки}  8/8 600 м 
[Sc diur, vesp]
-5.3 -6.8 89 -13  997.8  -0.4  744  306  -6.6    0.4  33  неравномерный
мокрый или
старый снег
100% 
00 19.02.18 310 (СЗ) 17-22{23}  20000 м  позёмок{ливн. осадки}  8/8 600 м 
[Sc diur, vesp]
-5.3 -6.8 89 -13  997.8  -0.4  744  306  -6.6    0.4  33  неравномерный
мокрый или
старый снег
100% 
21 19.02.18 300 (СЗ) 11-15{15}  20000 м  позёмок{ливн. осадки}  9/8 600 м кучево-дожд., средняя 
[Cb calv|Ac trans]
-6.2 -7.5 90 -13  1003.6  1.6  748  309  -6.7    0.2  32  неравномерный
мокрый или
старый снег
100% 
00 20.02.18 300 (СЗ) 11-13{16}  20000 м  {ливн. осадки}  8/1 600 м верхняя 
[Sc|Ci fib]
-5.7 -10.4 69 -12  1004.9  1.3  749  309  -6.8         
06 20.02.18 280 (З) 6{12}  20000 м    3/3 600 м верхняя 
[Sc|Ci sp]
-5.4 -12.4 58 -10  1006.8  1.4  750  310           
12 21.02.18 340 (С) 20000 м    1/1 600 м 
[Sc]
-6.4 -13.9 55 -12  1009.4  0.6  752  312           
15 21.02.18 070 (В) 20000 м    1/1 600 м 
[Sc]
-7.8 -14.1 61 -12  1008.6  -1  752  313           
21 21.02.18 070 (В) 13-16{16}  20000 м  позёмок  9/1 600 м средняя, верхняя 
[Sc|Ac As|Ci fib]
-6.8 -8.5 88 -14  1003.9  -2.4  748  310  -9      30  неравномерный
мокрый или
старый снег
100% 
09 22.02.18 350 (С) 20000 м    3/1 600 м средняя 
[Sc|Ac trans]
-4.9 -6.1 91 -9  1001.8  1.9  747  307    -3.9     
21 22.02.18 290 (З) 20-25{27}  20000 м  позёмок  8/8 600 м верхняя 
[Sc|Ci fib]
-7.3 -10.4 78 -17  1013.3  3.3  755  314  -7.7    0.4  29  неравномерный
мокрый или
старый снег
100% 
00 23.02.18 290 (З) 17-21{25}  20000 м  позёмок  8/6 600 м верхняя 
[Sc|Ci sp]
-7.2 -12.6 65 -16  1015.4  2.2  757  314  -7.8         
09 23.02.18 300 (СЗ) 12-18{21}  20000 м  позёмок{ливн. осадки}  8/8 600 м 
[Sc]
-7.6 -9.5 86 -15  1019.7  1.4  760  316    -6.7  0.0     
21 23.02.18 300 (СЗ) 10-12{18}  20000 м    6/6 600 м 
[Sc]
-6.3 -12 64 -13  1023.6  763  316  -7.8      29  неравномерный
мокрый или
старый снег
100% 
03 24.02.18 310 (СЗ) 4{13}  20000 м    1/1 600 м 
[Sc]
-5.2 -11.5 61 -8  1023.4  -1.2  763  314           
06 24.02.18 350 (С) 20000 м    ясно 
-5.9 -11.2 66 -10  1021.3  -2  761  315           
Время (UTC), дата Ветер
(°,м/с) 
Видим.   Явления Облачность Т
(°С)
Тd
(°С)
f(%) Тe
(°С)
Pmin
(гПа)
dP
(гПа)
Po
(мм)
O2
(г/м3)
Тmin Tmax R s Состояние
почвы

Для получения пояснительной информации подведите курсор к названию столбца.

ПОГОДА Мыс Лопатка - архив

Всё, что Вы хотите узнать о погоде Мыс Лопатка - удобно и подробно!

Выберите нужную дату (начиная с 1 января 2015* года) и нажмите кнопку "Найти".
Будут отображены архивные сводки погоды по пункту Мыс Лопатка, начиная с указанной даты.


Отображать данные в формате CSV (для использования в таблицах Excel)


Внимание! Наш архив погоды предназначен исключительно для личного некоммерческого использования в познавательных целях. Если Вам необходимы официальные справки о состоянии погоды (для производственных, юридических, коммерческих и т.п. целей), обращайтесь в органы Росгидромета.

*Примечание: данная дата относится к архиву по метеостанциям СССР (Россия, СНГ, Балтия).
Архив по метеостанциям Зарубежной Европы и Азии (кроме Китая) хранится 10 дней, по другим регионам земного шара (Китай, Африка, Америка, Австралия, Океания) - 1 день.

Мыс Лопатка - район местоположения метеостанции


Название, широта, долгота, высота метеостанции:
Мыс Лопатка 50.9°ш. 156.7°д. 48 м над ур. моря [Российская Федерация]

Дополнительная информация

В oтличие oт бoльшинства пoгoдных сайтoв мы публикуем пoдрoбную метеoинфoрмацию в детальнoм прoфессиoнальнoм фoрмате.

Характеристики температуры и влажнoсти вoздуха измеряются на высoте 2 м в тени вдали oт зданий и деревьев.
Скoрoсть ветра измеряется на высoте 10 м (на урoвне рoста челoвека скoрoсть ветра ниже в 1.5-2 раза). Если метеoстанция нахoдится в гoрoде или в лесу, тo скoрoсть ветра занижена на 2-4 м/с пo сравнению с oткрытым местoм. Скoрoсть ветра над акватoриями крупных рек и oзёр, а также на вершинах хoлмoв на 2-5 м/с выше, чем в oбычных услoвиях.
Атмoсфернoе давление в разных тoчках местнoсти мoжет значительнo oтличаться oт давления на метеoстанции, в зависимoсти oт услoвий рельефа (при пoдъёме на 10 м давление пoнижается примернo на 1 мм рт.ст.).